Torna al catalogo

STARLINK-37046

AttivoComunicazioniSSO
NORAD 68102·PAYLOAD·🇺🇸 United States

Lanciato Mar 8, 2026 da Vandenberg Space Force Base

Loading…

Prossimi Passaggi (prossime 24 ore)

TLE

AggiornatoSource: CelesTrak SupGP

Epoca: Sep 14, 2026, 23:23 UTC

1 68102C 26044B   26257.97479167 -.00065200  00000+0 -20243-2 0  2579
2 68102  97.2850 216.9315 0001948  87.9453   5.9423 15.33466424    17

Traccia STARLINK-37046 in tempo reale con AllMySat

Download on the App Store